Location: Drouwen
(52.9559°N, 6.7974°E)
Time: 11:14:17
(UTC+00:00)

NOSS 0 Rocket - Pass Details

Date: 15 May 2026
Orbit: 936 x 952 km, 70.0° (Epoch: 5 June)

Event Time Altitude Azimuth Distance (km) Brightness Sun altitude
Rises 23:19:44 0° 324° (NW) 3,617 7.9 -18.0°
Reaches altitude 10° 23:22:22 10° 318° (NW) 2,666 7.0 -18.0°
Maximum altitude 23:28:08 43° 249° (WSW) 1,299 4.5 -18.0°
Enters shadow 23:30:48 28° 199° (SSW) 1,685 4.7 -18.0°
